星链-11099 [DTC] (STARLINK-11099 [DTC] )

导读 | 星芒AI

STARLINK-11099 [DTC] 是SpaceX星链(Starlink)卫星互联网项目中的一颗低轨通信卫星。该卫星属于星链计划的第二批部署任务(DTC代表“直接到消费者”模式),旨在为全球用户提供高速、低延迟的宽带互联网服务。它运行在约550公里高的近地轨道,配备先进通信设备,支持Ka/Ku波段数据传输。该卫星的发射和运行有助于扩大星链网络的覆盖范围,提升偏远地区的网络接入能力。

基本信息
目录编号:
59716
目录名称:
STARLINK-11099
国际标识:
2024-088J
轨道中心:
EARTH
卫星名称:
星链-11099 [DTC]
卫星全名:
星链-11099 [DTC] (STARLINK-11099 [DTC] )
卫星状态:
在轨 (已飞行537 天)
发射日期:
2024-05-10 UTC
国别 :
美国 (US)
星等 :
--
轨道信息
数据来源 国际轨道数据
星历时间: 2025-10-28T11:16:08+0800
1天前
查看轨道信息
半长轴: 6737.861km
偏心率: 0.0001215
轨道倾角: 53.158°
近地点辐角 79.048°
升交点赤经 259.678°
平近点角 281.068°
近地点: 358.907km
远地点: 360.545km
周期: 91.737分钟
每日圈数: 15.697111
详细信息
固有亮度:
5
最大亮度:
0.6
卫星平台:
Starlink v2.0 mini
覆盖范围:
全球
运营商:
太空探索技术公司
运营商所在国:
美国
制造商(研发单位):
太空探索技术公司
制造商所在国:
美国
使用方式:
暂无
卫星简介
星链(Starlink)计划是由太空探索技术公司(SpaceX)提出的一个巨型低轨卫星互联网星座项目,计划在2019年至2024年间在太空搭建由约1.2万颗卫星组成的“星链”网络,其中1584颗将部署在地球上空550千米处的近地轨道,并从2020年开始工作。该卫星仍在工作。
2D轨道图
3D轨道图
轨道高度分析图
轨道倾角分析图
轨道综合分析图
查看轨道综合分析图